• In Uzbekistan
  • List of Countries
  • For 7 days
  • Water Temperature
  • Satellite Maps
  • Weather Map
  • Weather Widgets
  • user-avatar
    Login

    Hourly Weather Salta

    Today, 24 August, Thursday

    Time Temperature Precipitation Wind Pressure Humidity
    00:00 +19°C° 0 mm 1 mps 649 mmHg 36%
    01:00 +18°C° 0 mm 1 mps 648 mmHg 35%
    02:00 +18°C° 0 mm 1 mps 648 mmHg 34%
    03:00 +18°C° 0 mm 1 mps 647 mmHg 34%
    04:00 +16°C° 0 mm 1 mps 647 mmHg 34%
    05:00 +16°C° 0 mm 1 mps 647 mmHg 34%
    06:00 +18°C° 0 mm 1 mps 647 mmHg 33%
    07:00 +19°C° 0 mm 1 mps 648 mmHg 32%
    08:00 +21°C° 0 mm 1 mps 649 mmHg 31%
    09:00 +23°C° 0 mm 2 mps 649 mmHg 28%
    10:00 +25°C° 0 mm 2 mps 650 mmHg 26%
    11:00 +28°C° 0 mm 3 mps 650 mmHg 24%
    12:00 +28°C° 0 mm 3 mps 649 mmHg 23%
    13:00 +29°C° 0 mm 3 mps 649 mmHg 21%
    14:00 +30°C° 0 mm 3 mps 648 mmHg 20%
    15:00 +30°C° 0 mm 3 mps 648 mmHg 22%
    16:00 +29°C° 0 mm 3 mps 648 mmHg 23%
    17:00 +28°C° 0 mm 3 mps 647 mmHg 25%
    18:00 +26°C° 0 mm 2 mps 647 mmHg 31%
    19:00 +23°C° 0 mm 2 mps 647 mmHg 37%
    20:00 +21°C° 0 mm 1 mps 647 mmHg 43%
    21:00 +21°C° 0 mm 1 mps 647 mmHg 42%
    22:00 +21°C° 0 mm 1 mps 647 mmHg 41%
    23:00 +19°C° 0 mm 2 mps 647 mmHg 40%

    Tomorrow, 25 August, Friday

    Time Temperature Precipitation Wind Pressure Humidity
    00:00 +19°C° 0 mm 2 mps 647 mmHg 39%
    01:00 +19°C° 0 mm 2 mps 647 mmHg 38%
    02:00 +19°C° 0 mm 2 mps 646 mmHg 37%
    03:00 +18°C° 0 mm 2 mps 646 mmHg 36%
    04:00 +18°C° 0 mm 2 mps 646 mmHg 36%
    05:00 +18°C° 0 mm 2 mps 646 mmHg 36%
    06:00 +19°C° 0 mm 2 mps 647 mmHg 34%
    07:00 +20°C° 0 mm 2 mps 648 mmHg 32%
    08:00 +21°C° 0 mm 2 mps 648 mmHg 29%
    09:00 +25°C° 0 mm 2 mps 649 mmHg 26%
    10:00 +28°C° 0 mm 2 mps 650 mmHg 23%
    11:00 +30°C° 0 mm 2 mps 651 mmHg 20%
    12:00 +31°C° 0 mm 2 mps 650 mmHg 18%
    13:00 +33°C° 0 mm 3 mps 650 mmHg 17%
    14:00 +34°C° 0 mm 3 mps 649 mmHg 15%
    15:00 +33°C° 0 mm 3 mps 649 mmHg 17%
    16:00 +31°C° 0 mm 3 mps 649 mmHg 19%
    17:00 +30°C° 0 mm 3 mps 648 mmHg 21%
    18:00 +28°C° 0 mm 3 mps 649 mmHg 29%
    19:00 +25°C° 0 mm 2 mps 649 mmHg 37%
    20:00 +23°C° 0 mm 1 mps 650 mmHg 45%
    21:00 +22°C° 0.3 mm 1 mps 650 mmHg 48%
    22:00 +22°C° 0.3 mm 1 mps 651 mmHg 52%
    23:00 +20°C° 0.3 mm 2 mps 651 mmHg 55%

    Day after tomorrow, 26 August, Saturday

    Time Temperature Precipitation Wind Pressure Humidity
    00:00 +19°C° 0 mm 2 mps 651 mmHg 55%
    01:00 +18°C° 0 mm 2 mps 651 mmHg 55%
    02:00 +17°C° 0 mm 2 mps 650 mmHg 56%
    03:00 +17°C° 0 mm 2 mps 650 mmHg 52%
    04:00 +16°C° 0 mm 2 mps 650 mmHg 49%
    05:00 +15°C° 0 mm 2 mps 650 mmHg 46%
    06:00 +16°C° 0 mm 2 mps 651 mmHg 44%
    07:00 +17°C° 0 mm 2 mps 652 mmHg 41%
    08:00 +17°C° 0 mm 2 mps 653 mmHg 38%
    09:00 +19°C° 0 mm 2 mps 653 mmHg 36%
    10:00 +21°C° 0 mm 3 mps 653 mmHg 35%
    11:00 +22°C° 0 mm 3 mps 654 mmHg 33%
    12:00 +24°C° 0 mm 3 mps 653 mmHg 31%
    13:00 +25°C° 0 mm 3 mps 652 mmHg 30%
    14:00 +26°C° 0 mm 3 mps 652 mmHg 28%
    15:00 +25°C° 0 mm 3 mps 652 mmHg 29%
    16:00 +24°C° 0 mm 3 mps 651 mmHg 31%
    17:00 +24°C° 0 mm 3 mps 651 mmHg 32%
    18:00 +21°C° 0 mm 2 mps 651 mmHg 37%
    19:00 +19°C° 0 mm 2 mps 652 mmHg 42%
    20:00 +18°C° 0 mm 1 mps 652 mmHg 47%
    21:00 +16°C° 0 mm 1 mps 652 mmHg 48%
    22:00 +15°C° 0 mm 1 mps 652 mmHg 48%
    23:00 +15°C° 0 mm 1 mps 652 mmHg 49%

    27 August, Sunday

    Time Temperature Precipitation Wind Pressure Humidity
    00:00 +15°C° 0 mm 1 mps 651 mmHg 49%
    01:00 +14°C° 0 mm 1 mps 651 mmHg 49%
    02:00 +14°C° 0 mm 1 mps 650 mmHg 49%
    03:00 +14°C° 0 mm 1 mps 650 mmHg 48%
    04:00 +14°C° 0 mm 1 mps 650 mmHg 48%
    05:00 +13°C° 0 mm 1 mps 650 mmHg 47%
    06:00 +15°C° 0 mm 1 mps 651 mmHg 45%
    07:00 +16°C° 0 mm 1 mps 651 mmHg 42%
    08:00 +18°C° 0 mm 1 mps 652 mmHg 40%
    09:00 +20°C° 0 mm 1 mps 652 mmHg 37%
    10:00 +23°C° 0 mm 2 mps 653 mmHg 34%
    11:00 +25°C° 0 mm 2 mps 653 mmHg 32%
    12:00 +26°C° 0 mm 2 mps 652 mmHg 30%
    13:00 +27°C° 0 mm 3 mps 652 mmHg 29%
    14:00 +28°C° 0 mm 3 mps 651 mmHg 27%
    15:00 +27°C° 0 mm 3 mps 651 mmHg 29%
    16:00 +27°C° 0 mm 3 mps 651 mmHg 31%
    17:00 +26°C° 0 mm 3 mps 650 mmHg 34%
    18:00 +24°C° 0 mm 2 mps 651 mmHg 43%
    19:00 +22°C° 0 mm 1 mps 651 mmHg 53%
    20:00 +19°C° 0 mm 1 mps 651 mmHg 62%
    21:00 +19°C° 0 mm 1 mps 651 mmHg 64%
    22:00 +18°C° 0 mm 1 mps 651 mmHg 66%
    23:00 +18°C° 0 mm 1 mps 651 mmHg 68%

    28 August, Monday

    Time Temperature Precipitation Wind Pressure Humidity
    00:00 +16°C° 0 mm 1 mps 650 mmHg 67%
    01:00 +16°C° 0 mm 1 mps 650 mmHg 66%
    02:00 +16°C° 0 mm 1 mps 650 mmHg 65%
    03:00 +16°C° 0 mm 1 mps 650 mmHg 63%
    04:00 +16°C° 0 mm 1 mps 649 mmHg 61%
    05:00 +16°C° 0 mm 1 mps 649 mmHg 59%
    06:00 +18°C° 0 mm 1 mps 650 mmHg 57%
    07:00 +19°C° 0 mm 1 mps 651 mmHg 54%
    08:00 +20°C° 0 mm 1 mps 651 mmHg 51%
    09:00 +22°C° 0 mm 1 mps 652 mmHg 48%
    10:00 +24°C° 0 mm 2 mps 652 mmHg 45%
    11:00 +25°C° 0 mm 2 mps 652 mmHg 42%
    12:00 +27°C° 0 mm 3 mps 651 mmHg 40%
    13:00 +28°C° 0 mm 3 mps 651 mmHg 38%
    14:00 +29°C° 0 mm 3 mps 650 mmHg 36%
    15:00 +28°C° 0 mm 3 mps 650 mmHg 39%
    16:00 +28°C° 0 mm 3 mps 650 mmHg 41%
    17:00 +27°C° 0 mm 3 mps 649 mmHg 44%
    18:00 +25°C° 0 mm 2 mps 650 mmHg 53%
    19:00 +23°C° 0 mm 2 mps 650 mmHg 62%
    20:00 +22°C° 0 mm 1 mps 650 mmHg 72%
    21:00 +21°C° 0 mm 1 mps 650 mmHg 71%
    22:00 +21°C° 0 mm 1 mps 650 mmHg 70%
    23:00 +20°C° 0 mm 2 mps 650 mmHg 69%

    29 August, Tuesday

    Time Temperature Precipitation Wind Pressure Humidity
    00:00 +21°C° 0 mm 1 mps 650 mmHg 66%
    01:00 +21°C° 0 mm 1 mps 649 mmHg 63%
    02:00 +20°C° 0 mm 1 mps 649 mmHg 61%
    03:00 +20°C° 0 mm 1 mps 649 mmHg 59%
    04:00 +20°C° 0 mm 1 mps 648 mmHg 57%
    05:00 +19°C° 0 mm 2 mps 648 mmHg 56%
    06:00 +20°C° 0 mm 2 mps 649 mmHg 52%
    07:00 +21°C° 0 mm 2 mps 650 mmHg 49%
    08:00 +23°C° 0 mm 1 mps 650 mmHg 45%
    09:00 +25°C° 0 mm 2 mps 651 mmHg 41%
    10:00 +28°C° 0 mm 2 mps 651 mmHg 37%
    11:00 +30°C° 0 mm 3 mps 651 mmHg 33%
    12:00 +31°C° 0 mm 3 mps 650 mmHg 31%
    13:00 +33°C° 0 mm 3 mps 650 mmHg 30%
    14:00 +34°C° 0 mm 3 mps 649 mmHg 28%
    15:00 +33°C° 0 mm 3 mps 649 mmHg 29%
    16:00 +31°C° 0 mm 3 mps 649 mmHg 30%
    17:00 +31°C° 0 mm 3 mps 649 mmHg 32%
    18:00 +29°C° 0 mm 2 mps 649 mmHg 37%
    19:00 +27°C° 0 mm 2 mps 649 mmHg 43%
    20:00 +25°C° 0 mm 1 mps 649 mmHg 48%
    21:00 +25°C° 0 mm 1 mps 650 mmHg 47%
    22:00 +25°C° 0 mm 1 mps 650 mmHg 46%
    23:00 +25°C° 0 mm 1 mps 650 mmHg 44%
    Show more